RH
57 50 45 42 40 36 35 36 37 38 38 39 37 31 28 27 25 23 21 18 17 21 25 25 24 24 24 24 23 22 21 22 23 23 24 24 25 25 25 26 27 26 26 25 24 26 28 27 26 27 27 26 27 28 29 29 27 27 28 28 27 27 27 25 26 29 31 31 33 34 34 34 36 38 36 37 40 39 40 41 40 40 41 40 38 40 48
58 52 46 43 42 38 34 33 35 34 35 37 37 35 36 36 32 27 25 19 17 21 24 25 24 23 24 23 22 22 22 22 22 22 23 24 25 26 26 27 27 26 26 25 24 26 28 27 27 29 29 28 29 30 30 29 29 30 30 29 28 28 26 26 29 32 35 36 38 38 37 36 36 37 37 38 39 39 40 41 40 41 42 41 39 39 44
60 54 49 45 44 41 35 32 33 32 31 34 36 36 39 40 35 31 30 24 20 21 23 23 23 22 23 23 23 23 22 22 22 22 22 23 25 26 27 26 26 25 26 27 25 25 30 31 28 28 29 30 30 31 30 29 30 32 31 28 28 28 28 29 30 31 33 36 39 39 38 36 36 39 40 40 40 40 41 42 42 44 43 42 43 42 42
61 56 51 47 45 44 38 33 33 31 29 30 32 34 40 42 36 33 33 28 24 23 21 21 21 21 21 21 22 23 22 23 23 22 23 24 24 25 25 24 24 25 26 27 26 26 28 30 29 30 32 32 31 32 32 32 31 32 31 29 28 29 31 33 33 32 32 35 37 35 35 38 39 41 44 44 42 41 43 43 43 44 43 42 45 44 42
61 59 54 49 47 45 41 37 35 32 30 28 28 31 37 41 39 36 35 32 27 26 23 21 21 20 20 21 22 22 23 24 23 23 24 24 23 24 24 22 23 26 27 27 29 27 26 27 29 31 33 32 31 31 33 34 34 33 31 30 32 34 35 36 38 37 34 35 36 35 36 40 41 41 43 43 42 43 44 43 43 43 43 42 45 46 45
62 60 56 52 49 46 42 40 38 35 32 28 26 30 34 37 41 42 40 35 31 29 27 24 22 21 21 22 23 23 23 23 23 23 23 23 23 23 24 23 23 25 27 28 30 29 28 29 29 29 30 31 32 32 32 33 35 35 33 31 32 35 35 35 40 42 38 35 36 36 37 40 41 41 43 42 42 45 46 44 44 45 43 41 43 46 47
63 61 58 55 52 48 43 41 41 38 35 30 27 30 33 35 40 43 41 38 36 35 33 28 24 22 22 23 23 22 23 23 24 24 23 24 24 23 23 24 23 23 25 27 31 30 30 30 28 26 28 30 32 35 35 33 33 36 36 33 32 35 37 37 38 42 41 37 37 38 38 39 40 42 42 41 42 46 48 46 45 46 45 43 44 45 44
64 64 61 57 55 50 43 40 42 41 39 34 29 29 32 34 38 41 40 39 39 39 37 32 28 26 25 24 22 21 22 23 25 24 23 24 23 21 23 25 25 23 22 25 30 31 28 28 27 24 26 27 28 32 35 33 32 35 36 36 35 36 38 38 37 39 42 40 39 40 39 38 40 40 40 43 46 48 49 49 47 47 46 46 46 45 45
66 65 63 59 56 52 44 40 41 43 41 37 33 31 29 30 34 39 39 38 38 39 38 33 30 30 28 26 24 22 22 22 23 24 24 24 23 22 23 24 24 23 21 23 27 27 24 24 24 22 24 28 28 28 28 29 33 36 35 35 36 36 36 37 37 37 40 40 39 40 39 39 41 40 42 47 47 44 45 47 47 47 47 48 48 47 47
67 66 63 61 58 53 47 41 40 44 43 39 37 35 31 29 33 37 38 37 36 36 35 32 31 31 30 29 27 24 24 23 23 24 25 24 24 23 23 22 22 23 23 23 25 25 22 23 23 21 22 25 25 24 23 23 31 37 36 34 36 36 35 36 36 35 36 38 38 38 40 43 43 40 40 42 42 39 41 44 45 46 46 45 46 45 44
67 66 63 62 59 54 50 45 41 43 44 41 38 36 32 32 36 39 38 35 34 33 32 30 30 30 30 30 28 27 27 26 24 24 25 26 25 24 23 22 22 22 23 23 24 24 24 24 23 22 22 22 22 22 22 22 25 31 33 34 35 34 35 36 36 33 33 37 38 37 40 42 39 35 34 36 37 38 40 40 41 44 44 42 41 42 43
65 66 64 63 61 56 53 49 44 43 44 44 40 37 33 33 36 38 36 33 32 33 31 29 29 30 29 29 29 29 28 27 26 26 27 28 28 26 26 24 21 21 23 23 22 23 23 23 23 22 22 21 21 21 22 24 26 27 31 34 35 34 35 36 36 33 33 36 35 36 39 38 34 32 33 35 36 37 37 37 38 40 41 40 41 42 42
66 66 66 64 63 59 56 54 50 45 44 44 43 41 38 35 35 37 36 32 31 32 31 30 30 31 29 28 29 29 29 29 30 29 29 29 28 28 28 26 23 22 23 23 23 22 22 21 21 20 19 18 19 21 22 25 28 29 30 32 33 34 36 36 35 34 34 34 32 32 33 32 31 33 35 37 38 39 40 39 38 39 39 38 40 41 41
70 72 72 69 66 63 59 57 55 50 45 44 44 44 43 39 37 38 37 33 31 32 33 31 30 30 30 29 29 30 30 31 32 32 31 29 27 28 28 27 25 24 24 24 23 22 21 20 20 21 21 20 22 24 25 26 30 31 31 31 31 33 36 36 35 36 34 31 29 30 31 32 34 35 35 36 38 39 40 38 36 38 37 35 37 40 39
73 76 80 78 73 68 63 60 59 55 48 45 44 45 47 45 41 38 38 35 31 31 33 32 30 30 30 30 30 30 31 31 31 32 31 29 28 28 28 27 26 26 26 25 23 22 21 20 20 22 24 25 26 27 27 28 30 31 32 32 31 31 35 36 36 36 34 31 30 29 29 31 34 34 32 34 36 36 37 36 37 39 37 33 34 37 38
77 78 84 85 80 74 67 62 61 60 53 47 44 44 47 49 46 42 40 38 33 31 31 32 32 32 31 31 32 31 31 32 31 31 31 30 28 28 27 27 27 28 28 26 23 23 22 21 20 21 24 26 26 28 28 29 31 31 31 32 32 31 33 35 35 35 34 33 31 30 29 29 31 32 32 33 35 35 36 39 41 41 37 31 32 34 37
84 82 84 88 85 80 72 65 62 62 58 50 46 45 45 49 51 47 43 40 35 32 32 32 32 33 31 32 33 32 32 32 31 32 32 30 27 27 27 28 28 28 28 26 25 24 22 21 21 21 23 26 26 27 27 29 33 34 31 30 33 33 32 34 35 34 34 33 31 29 29 30 30 31 31 32 35 35 38 44 44 38 34 32 31 33 36
90 86 86 88 87 82 76 68 63 63 62 54 48 46 45 47 50 49 46 43 38 33 32 33 33 34 33 33 34 34 34 33 32 31 32 30 27 26 27 29 29 29 28 26 26 25 24 23 22 22 25 26 26 26 27 29 32 34 32 32 35 35 33 33 35 33 32 34 33 30 29 30 29 30 30 31 34 37 39 42 39 33 30 31 33 34 35
93 90 88 88 88 83 77 70 65 65 64 57 51 49 47 46 49 49 47 45 41 35 34 34 34 36 35 34 35 34 34 34 33 31 30 30 28 27 29 31 30 30 29 27 26 27 25 25 24 23 25 27 27 27 28 29 30 32 32 34 36 36 34 34 35 33 32 33 33 30 29 30 30 30 30 31 34 37 37 35 32 28 29 31 32 33 35
94 92 89 87 88 86 79 72 68 68 66 60 54 53 50 48 49 50 47 46 44 39 35 34 35 36 37 36 36 35 33 33 33 30 30 32 30 29 32 35 32 30 30 29 28 28 26 27 27 24 24 28 29 27 27 29 29 29 31 32 34 34 33 32 33 33 33 34 35 32 30 31 30 29 31 32 32 32 30 28 28 27 28 31 32 33 35
93 91 87 85 87 87 82 77 73 71 69 65 57 54 54 51 50 50 48 46 44 41 38 36 34 35 36 36 37 36 35 34 33 32 32 33 31 31 33 33 29 28 28 28 28 28 27 28 29 26 26 28 29 27 28 29 29 29 29 30 32 32 30 29 31 32 30 32 34 32 28 29 29 27 27 29 27 26 26 26 30 31 30 30 33 34 35
90 86 84 83 85 85 83 81 80 76 72 69 62 58 58 56 53 52 50 47 44 42 39 36 34 33 34 35 35 36 36 35 34 33 32 32 32 33 34 32 30 30 30 28 28 29 27 28 27 26 27 28 27 27 29 28 28 29 29 28 30 30 29 29 31 30 28 27 30 30 27 28 28 26 25 26 26 27 27 27 28 32 32 31 32 33 34
86 84 83 83 84 83 81 83 85 81 75 71 67 64 62 59 55 54 54 52 49 44 39 36 35 33 32 33 33 35 35 35 34 32 32 33 33 33 34 34 35 35 33 30 30 29 27 27 27 26 27 28 27 28 29 26 26 29 29 27 27 28 29 29 29 28 27 26 26 28 27 27 29 27 26 28 29 29 29 28 27 29 30 30 30 31 33
85 83 83 83 83 83 82 83 87 86 80 74 71 68 65 61 58 57 59 58 54 48 43 40 38 37 36 34 32 32 33 35 34 33 32 32 33 34 35 36 36 37 37 34 31 30 29 28 28 27 27 27 26 27 29 28 26 27 28 27 27 27 28 28 27 28 28 26 25 26 26 26 28 28 27 29 30 30 30 31 29 29 29 30 31 32 34
86 84 82 84 85 85 85 86 88 88 83 77 74 72 70 67 64 62 63 63 59 52 46 43 42 41 39 36 34 32 32 32 33 35 34 32 33 35 38 36 34 36 39 37 34 34 31 31 31 29 28 29 27 26 29 30 28 28 28 28 30 30 29 28 27 28 28 25 25 27 28 28 29 29 28 28 29 29 30 31 30 30 30 32 32 33 35
88 86 84 84 86 88 89 89 90 90 85 78 75 74 74 73 69 66 65 65 62 56 50 47 48 46 42 41 40 37 34 33 33 34 36 35 34 35 37 37 36 36 37 36 37 38 35 33 33 32 32 32 30 28 29 31 29 28 27 28 30 31 29 27 27 26 26 25 24 26 27 28 29 29 29 29 28 29 30 31 30 29 30 31 32 32 34
87 87 85 85 86 89 92 93 94 92 86 80 77 75 73 73 71 69 67 67 66 59 50 47 51 50 47 46 45 41 38 36 34 34 36 39 39 38 39 40 42 42 40 38 38 37 35 35 35 34 35 36 33 31 31 31 29 28 26 26 28 27 25 25 26 25 24 23 24 25 25 26 27 29 29 30 30 30 31 31 30 30 30 31 33 33 34
88 87 86 85 84 85 88 92 94 91 85 81 78 74 72 72 72 70 68 67 68 65 57 51 52 53 50 48 47 45 43 41 38 37 37 39 42 43 43 45 47 47 46 44 41 38 36 36 35 34 35 35 33 34 34 33 32 30 26 25 26 24 22 24 25 24 22 21 22 25 25 24 25 26 28 30 30 30 30 30 30 30 31 32 33 34 36
91 89 88 86 85 82 82 85 88 88 85 81 77 74 72 72 72 71 67 66 68 71 67 58 53 52 52 52 50 49 48 46 43 41 41 41 43 44 45 47 49 50 50 48 45 43 42 40 38 37 36 33 32 35 36 34 33 30 24 23 24 24 22 23 23 23 22 21 21 24 25 24 24 25 28 30 30 30 31 31 30 30 31 32 34 34 36
94 92 90 89 88 86 84 83 82 82 81 80 78 76 74 74 73 72 69 66 68 72 70 61 54 53 55 55 54 53 52 50 48 46 46 46 46 46 46 48 50 50 51 51 49 48 47 45 43 41 39 35 34 36 37 36 33 28 22 22 24 24 23 23 23 22 21 21 23 25 25 25 25 27 29 31 31 30 31 32 32 32 32 33 34 35 36
94 92 91 92 91 90 90 89 85 81 78 77 77 77 75 76 77 76 72 68 68 71 71 64 57 55 56 55 55 54 54 53 51 50 49 50 50 49 49 48 48 48 48 48 48 47 45 44 43 42 41 38 37 38 38 38 34 28 23 23 25 24 23 23 22 22 22 22 25 27 26 25 27 28 28 30 32 32 32 33 33 33 33 33 34 35 37
93 91 91 93 92 91 93 95 92 86 80 76 75 75 75 77 79 78 75 72 72 73 72 66 60 58 57 56 55 54 53 52 52 50 50 50 51 51 49 48 47 47 45 44 43 42 40 40 40 39 39 37 36 35 36 36 33 29 27 27 26 24 24 24 23 23 24 24 26 27 26 26 28 28 28 28 32 34 35 35 35 35 34 33 34 35 35
92 89 90 93 92 91 94 98 97 94 87 79 74 73 73 73 74 74 75 77 80 80 76 68 63 61 60 59 59 57 54 53 53 52 51 52 52 52 51 49 49 48 46 43 40 39 39 40 39 38 38 38 35 32 30 30 29 29 29 29 28 26 25 25 25 24 26 26 26 26 26 27 28 30 30 30 32 36 37 36 35 35 34 34 34 35 36
91 88 89 93 93 92 93 95 96 97 94 87 81 77 73 72 72 73 74 78 82 83 80 74 67 62 59 60 62 62 59 58 55 52 51 53 54 53 52 51 49 47 45 43 40 38 38 39 38 37 37 37 36 33 31 30 31 32 32 31 30 29 28 28 28 27 26 26 26 26 27 28 30 32 33 33 34 36 37 36 34 34 35 35 35 36 39
88 85 88 92 92 89 89 92 93 95 94 92 90 87 80 74 72 72 73 76 79 81 80 76 71 65 60 59 61 62 62 62 59 55 53 55 55 54 53 52 50 48 47 46 43 41 39 39 38 37 36 36 37 36 34 34 35 36 35 35 34 32 30 30 31 29 27 27 28 28 29 30 31 33 34 35 36 37 38 37 36 36 36 36 36 37 41
83 82 86 91 90 85 86 89 91 92 92 92 93 92 88 81 77 75 74 74 76 77 77 74 70 66 62 61 62 63 63 63 62 60 59 58 58 57 56 54 52 52 52 50 48 45 44 44 44 42 40 40 40 38 36 36 37 37 37 37 37 35 33 33 33 31 29 28 30 31 32 33 35 36 38 38 39 38 38 38 38 38 37 37 37 39 42
78 77 82 89 89 85 83 85 86 87 89 90 91 92 92 89 86 82 79 75 74 75 76 74 69 63 62 64 65 64 65 66 65 63 62 61 60 60 59 57 56 56 55 53 51 50 49 49 48 45 43 42 41 40 41 41 41 40 39 39 38 37 36 35 34 33 32 31 31 33 36 37 39 41 43 43 41 39 38 38 38 39 39 39 39 42 44
73 74 78 85 88 86 83 80 78 79 83 86 87 88 90 92 92 89 86 81 78 75 74 73 69 65 65 68 68 67 66 66 66 64 64 63 62 61 61 60 59 59 58 56 54 53 53 52 49 47 45 43 42 43 45 45 44 43 42 42 41 39 38 37 36 35 34 34 34 36 38 40 42 44 46 45 42 39 38 39 39 40 41 40 40 43 46
69 71 75 79 83 85 83 79 76 74 76 79 81 82 85 88 91 91 89 86 81 78 74 70 67 66 67 68 68 68 68 67 66 66 66 66 65 65 64 63 62 61 60 59 58 56 55 54 51 49 47 45 44 47 49 47 45 45 45 45 44 43 41 41 40 39 38 38 37 38 39 41 43 45 45 44 40 38 38 39 41 41 41 42 43 45 48
64 68 72 74 75 77 78 77 75 74 72 73 76 77 79 81 83 85 88 86 82 78 74 69 65 66 68 68 67 68 70 69 68 68 68 68 67 67 67 66 66 64 62 61 59 56 55 53 52 52 52 49 47 50 51 48 46 47 47 47 46 45 45 45 45 44 43 42 41 41 41 42 43 45 45 42 39 37 38 41 42 42 42 44 45 47 49
62 67 71 70 68 69 70 72 75 77 76 74 73 72 73 75 75 76 81 83 80 76 73 70 67 68 69 67 67 68 70 70 69 69 68 68 68 68 69 68 67 65 64 63 60 56 55 53 51 51 52 49 48 50 52 50 47 48 48 47 46 46 46 47 48 48 47 46 45 45 46 46 45 45 45 42 40 38 39 42 44 44 44 45 46 48 51
62 66 69 68 67 69 71 73 77 79 76 74 74 71 67 68 70 71 73 75 76 75 74 71 70 69 70 69 69 69 70 71 70 69 68 69 69 68 68 70 70 67 64 61 59 57 56 54 52 51 50 48 48 52 54 51 49 49 48 48 47 47 46 47 49 50 50 50 49 49 49 49 49 49 47 46 44 42 42 44 46 47 46 46 47 50 53
63 66 70 72 74 76 75 75 77 76 72 72 74 72 66 64 65 67 67 67 67 69 71 71 71 72 74 74 73 72 72 73 71 69 69 69 68 68 70 72 71 67 62 59 58 58 56 54 53 52 51 50 51 55 55 52 49 49 50 49 49 49 47 46 48 49 50 50 50 50 51 52 53 53 52 51 49 47 46 47 48 48 47 47 49 51 53
68 69 71 75 79 79 75 73 74 73 68 66 66 66 66 64 63 62 62 62 60 60 63 66 69 71 74 75 76 76 76 75 73 73 72 71 69 71 73 71 67 64 63 61 59 57 56 55 54 53 53 54 56 56 55 52 50 51 51 51 51 51 49 47 46 46 48 49 49 49 50 50 52 53 54 53 51 50 49 48 47 46 46 48 50 52 54
71 70 70 75 79 76 71 69 71 70 64 58 55 54 57 59 61 61 61 59 56 56 58 59 61 63 67 71 74 75 75 75 75 75 74 74 73 71 70 68 66 66 67 65 61 59 59 58 56 55 55 57 58 56 54 53 53 52 51 50 51 51 50 50 49 47 47 48 48 49 49 50 50 52 53 52 50 49 48 47 46 45 45 49 52 53 55
74 70 68 69 70 68 63 61 64 63 57 51 49 49 49 52 57 61 60 56 53 55 57 57 57 58 61 63 66 69 70 72 73 71 72 76 77 72 68 68 69 69 68 66 64 62 61 60 59 59 58 57 56 55 54 54 53 52 51 50 50 49 49 49 49 47 46 46 47 47 48 50 51 51 51 51 49 47 45 45 45 45 47 50 53 55 56
75 73 70 66 63 60 54 50 51 54 53 50 50 51 51 53 56 58 55 51 50 53 56 57 59 61 62 61 61 62 62 64 66 66 68 73 75 71 69 70 71 69 66 64 62 59 59 61 62 62 60 56 54 54 54 53 52 52 50 50 49 48 48 48 47 46 46 46 47 47 48 49 50 50 50 50 49 47 45 45 45 47 49 52 55 56 57
71 71 70 65 57 51 45 41 41 47 52 52 49 49 51 53 54 54 51 47 47 50 53 54 56 58 59 59 59 59 59 60 63 64 64 66 68 68 69 70 69 65 61 59 58 58 59 62 63 61 57 55 54 54 53 53 53 51 50 49 48 47 47 47 47 47 46 47 47 48 47 47 47 48 49 49 49 47 45 45 46 48 51 54 55 57 58
73 73 70 62 51 45 44 45 46 49 53 51 46 43 45 47 46 45 46 47 46 48 51 54 57 58 58 57 58 58 59 60 62 62 62 64 65 63 64 66 65 59 53 51 51 53 55 57 57 56 54 53 53 53 53 52 52 51 49 48 48 47 46 46 45 44 44 44 45 45 45 44 44 44 45 46 47 47 45 45 46 49 51 54 55 56 57
79 79 73 64 55 51 52 53 53 53 53 51 45 42 44 46 44 43 46 49 49 49 51 54 55 54 54 58 61 62 59 57 56 57 59 60 58 57 58 59 55 49 47 47 48 49 50 51 52 52 51 50 51 51 51 50 50 49 48 47 46 45 44 44 42 41 41 40 40 40 40 39 39 39 40 43 45 46 46 47 49 51 53 54 54 55 56
83 79 71 65 61 58 57 55 53 50 51 50 46 44 45 48 50 51 53 52 51 51 51 51 50 51 55 59 60 58 55 53 53 53 53 51 49 51 54 51 43 39 42 45 45 45 46 47 48 50 50 48 47 47 47 46 45 45 44 44 44 42 41 40 38 37 37 37 36 36 36 36 36 38 40 43 45 48 49 50 52 53 53 54 55 56 57
85 77 69 67 68 66 63 60 58 55 52 50 49 48 47 49 52 55 56 53 50 51 52 52 53 57 57 53 49 48 50 53 53 52 50 46 43 44 45 42 37 38 42 43 42 43 45 47 48 49 47 44 42 41 42 41 41 40 40 40 40 39 38 36 35 34 34 34 33 33 34 34 35 38 41 44 46 49 52 54 55 55 55 56 57 58 58